,,,PA_Meas_PMT16A,,PR_Meas_QMR101_102,,RH_Meas_QMH101,,SR_Meas_QMS101,,TA_Meas_QMH101,,GenWind,,GenWind,
date,time,status,PA,status,PR,status,RH,status,SR,status,TA,status,DirAvg,status,SpdAvg,
2012-06-18, 00:00:04,VALID,1007.12,VALID,0,VALID,93.4156,VALID,0.0815089,VALID,24.0521,VALID,351,VALID,0,
2012-06-18, 00:01:04,VALID,1007.1,VALID,0,VALID,93.4233,VALID,0.0815089,VALID,24.0326,VALID,351,VALID,0,
2012-06-18, 00:02:04,VALID,1007.14,VALID,0,VALID,93.5301,VALID,0.0815089,VALID,24.0521,VALID,351,VALID,0,
2012-06-18, 00:03:04,VALID,1007.11,VALID,0,VALID,93.5682,VALID,0.0815089,VALID,24.0503,VALID,351,VALID,0,
2012-06-18, 00:04:04,VALID,1007.08,VALID,0,VALID,93.6598,VALID,0.0815089,VALID,24.0503,VALID,351,VALID,0,
2012-06-18, 00:05:04,VALID,1007.11,VALID,0,VALID,93.8047,VALID,0.0815089,VALID,24.13,VALID,351,VALID,0,
2012-06-18, 00:06:04,VALID,1007.09,VALID,0,VALID,93.9115,VALID,0.0815089,VALID,24.1689,VALID,351,VALID,0,
2012-06-18, 00:07:04,VALID,1007.07,VALID,0,VALID,93.7132,VALID,0.0815089,VALID,24.1281,VALID,351,VALID,0.461328,
2012-06-18, 00:08:04,VALID,1007.05,VALID,0,VALID,94.1251,VALID,0,VALID,24.2644,VALID,34,VALID,0.73125,
2012-06-18, 00:09:04,VALID,1007.06,VALID,0,VALID,94.1938,VALID,0.0815089,VALID,24.422,VALID,18,VALID,0.53125,
2012-06-18, 00:10:04,VALID,1007.06,VALID,0,VALID,93.8429,VALID,0.0815089,VALID,24.4414,VALID,22,VALID,0.44375,
2012-06-18, 00:11:04,VALID,1007.06,VALID,0,VALID,93.553,VALID,0.0815089,VALID,24.459,VALID,41,VALID,0.229687,
2012-06-18, 00:12:04,VALID,1007.08,VALID,0,VALID,93.3394,VALID,0.0815089,VALID,24.4998,VALID,41,VALID,0.202734,
2012-06-18, 00:13:04,VALID,1007.08,VALID,0,VALID,93.0342,VALID,0.0815089,VALID,24.459,VALID,41,VALID,0.337109,
2012-06-18, 00:14:04,VALID,1007.05,VALID,0,VALID,93.0571,VALID,0.0815089,VALID,24.5193,VALID,41,VALID,0.307422,
2012-06-18, 00:15:04,VALID,1007.07,VALID,0,VALID,92.8358,VALID,0.0815089,VALID,24.5193,VALID,41,VALID,0.175,
2012-06-18, 00:16:04,VALID,1007.09,VALID,0,VALID,92.6833,VALID,0,VALID,24.5193,VALID,41,VALID,0.401563,
2012-06-18, 00:17:04,VALID,1007.03,VALID,0,VALID,92.4925,VALID,0.0815089,VALID,24.4804,VALID,41,VALID,0.414063,
2012-06-18, 00:18:04,VALID,1007.02,VALID,0,VALID,92.7062,VALID,0,VALID,24.4804,VALID,41,VALID,0.0292969,
2012-06-18, 00:19:04,VALID,1007.02,VALID,0,VALID,92.5383,VALID,0.0815089,VALID,24.4609,VALID,41,VALID,0.157031,
2012-06-18, 00:20:04,VALID,1007.03,VALID,0,VALID,92.462,VALID,0,VALID,24.422,VALID,41,VALID,0,
2012-06-18, 00:21:04,VALID,1007.04,VALID,0,VALID,92.4849,VALID,0.0815089,VALID,24.4025,VALID,41,VALID,0.327734,
2012-06-18, 00:22:04,VALID,1007.04,VALID,0,VALID,92.7062,VALID,0.0815089,VALID,24.3636,VALID,41,VALID,0.469531,
2012-06-18, 00:23:04,VALID,1007.03,VALID,0,VALID,92.7367,VALID,0,VALID,24.4043,VALID,57,VALID,0.427344,
2012-06-18, 00:24:04,VALID,1007.02,VALID,0,VALID,92.6833,VALID,0.0815089,VALID,24.3636,VALID,56,VALID,0.659766,
2012-06-18, 00:25:04,VALID,1007.01,VALID,0,VALID,93.0113,VALID,0,VALID,24.383,VALID,56,VALID,0.507813,
2012-06-18, 00:26:04,VALID,1007.02,VALID,0,VALID,93.3165,VALID,0.0815089,VALID,24.4396,VALID,56,VALID,0.51875,
2012-06-18, 00:27:04,VALID,1007,VALID,0,VALID,93.1563,VALID,0.0815089,VALID,24.4609,VALID,56,VALID,0.378125,
2012-06-18, 00:28:04,VALID,1006.97,VALID,0,VALID,93.0342,VALID,0.0815089,VALID,24.4609,VALID,56,VALID,0.299219,
2012-06-18, 00:29:04,VALID,1006.97,VALID,0,VALID,93.1105,VALID,0.0815089,VALID,24.4609,VALID,56,VALID,0,
2012-06-18, 00:30:04,VALID,1006.96,VALID,0,VALID,92.9808,VALID,0.0815089,VALID,24.4396,VALID,56,VALID,0,
2012-06-18, 00:31:04,VALID,1006.98,VALID,0,VALID,92.9198,VALID,0.0815089,VALID,24.4201,VALID,56,VALID,0,
2012-06-18, 00:32:04,VALID,1006.95,VALID,0,VALID,92.729,VALID,0.0815089,VALID,24.3812,VALID,56,VALID,0.370703,
2012-06-18, 00:33:04,VALID,1006.93,VALID,0,VALID,92.874,VALID,0.0815089,VALID,24.4025,VALID,56,VALID,0.267188,
2012-06-18, 00:34:04,VALID,1006.94,VALID,0,VALID,92.9808,VALID,0.0815089,VALID,24.383,VALID,56,VALID,0.284375,
2012-06-18, 00:35:04,VALID,1006.94,VALID,0,VALID,92.8511,VALID,0.0815089,VALID,24.3422,VALID,56,VALID,0.216797,
2012-06-18, 00:36:04,VALID,1006.92,VALID,0,VALID,92.8664,VALID,0,VALID,24.3636,VALID,56,VALID,0.154297,
2012-06-18, 00:37:04,VALID,1006.9,VALID,0,VALID,92.7748,VALID,0.0815089,VALID,24.2839,VALID,56,VALID,0.317969,
2012-06-18, 00:38:04,VALID,1006.91,VALID,0,VALID,92.7367,VALID,0.0815089,VALID,24.2857,VALID,56,VALID,0.348437,
2012-06-18, 00:39:04,VALID,1006.91,VALID,0,VALID,92.8664,VALID,0,VALID,24.2681,VALID,56,VALID,0.489453,
2012-06-18, 00:40:04,VALID,1006.89,VALID,0,VALID,92.9426,VALID,0,VALID,24.2273,VALID,56,VALID,0.258594,
2012-06-18, 00:41:04,VALID,1006.87,VALID,0,VALID,93.0495,VALID,0,VALID,24.2486,VALID,56,VALID,0.439453,
2012-06-18, 00:42:04,VALID,1006.88,VALID,0,VALID,93.0189,VALID,0,VALID,24.2273,VALID,56,VALID,0.394922,
2012-06-18, 00:43:04,VALID,1006.85,VALID,0,VALID,92.9198,VALID,0,VALID,24.1902,VALID,56,VALID,0.100391,
2012-06-18, 00:44:04,VALID,1006.88,VALID,0,VALID,92.9274,VALID,0,VALID,24.1513,VALID,56,VALID,0.283984,
2012-06-18, 00:45:04,VALID,1006.86,VALID,0,VALID,92.9579,VALID,0,VALID,24.091,VALID,56,VALID,0,
2012-06-18, 00:46:04,VALID,1006.85,VALID,0,VALID,93.0418,VALID,0,VALID,24.0716,VALID,56,VALID,0.01875,
2012-06-18, 00:47:04,VALID,1006.82,VALID,0,VALID,93.1334,VALID,0,VALID,24.0521,VALID,56,VALID,0.00820312,
2012-06-18, 00:48:04,VALID,1006.82,VALID,0,VALID,93.1334,VALID,0,VALID,24.0539,VALID,56,VALID,0.00507812,
2012-06-18, 00:49:04,VALID,1006.78,VALID,0,VALID,93.1486,VALID,0,VALID,24.0132,VALID,56,VALID,0,
2012-06-18, 00:50:04,VALID,1006.76,VALID,0,VALID,93.141,VALID,0,VALID,23.9937,VALID,56,VALID,0,
2012-06-18, 00:51:04,VALID,1006.75,VALID,0,VALID,93.2402,VALID,0,VALID,23.9548,VALID,56,VALID,0.0488281,
2012-06-18, 00:52:04,VALID,1006.75,VALID,0,VALID,93.3699,VALID,0,VALID,23.9955,VALID,56,VALID,0,
2012-06-18, 00:53:04,VALID,1006.72,VALID,0,VALID,93.5606,VALID,0,VALID,23.9937,VALID,56,VALID,0,
2012-06-18, 00:54:04,VALID,1006.71,VALID,0,VALID,93.5835,VALID,0,VALID,24.0132,VALID,56,VALID,0,
2012-06-18, 00:55:04,VALID,1006.7,VALID,0,VALID,93.5835,VALID,0,VALID,23.9742,VALID,56,VALID,0,
2012-06-18, 00:56:04,VALID,1006.68,VALID,0,VALID,93.6674,VALID,0,VALID,23.9937,VALID,56,VALID,0,
2012-06-18, 00:57:04,VALID,1006.69,VALID,0,VALID,93.7971,VALID,0,VALID,24.0132,VALID,56,VALID,0,
2012-06-18, 00:58:04,VALID,1006.67,VALID,0,VALID,93.8429,VALID,0,VALID,24.0132,VALID,56,VALID,0,
2012-06-18, 00:59:04,VALID,1006.68,VALID,0,VALID,93.8505,VALID,0,VALID,24.0345,VALID,56,VALID,0,
2012-06-18, 01:00:04,VALID,1006.68,VALID,0,VALID,93.881,VALID,0,VALID,24.0734,VALID,56,VALID,0,
2012-06-18, 01:01:04,VALID,1006.66,VALID,0,VALID,93.8734,VALID,0,VALID,24.0345,VALID,56,VALID,0,
2012-06-18, 01:02:04,VALID,1006.63,VALID,0,VALID,93.8505,VALID,0,VALID,24.0132,VALID,56,VALID,0,
2012-06-18, 01:03:04,VALID,1006.63,VALID,0,VALID,93.881,VALID,0,VALID,24.0345,VALID,56,VALID,0,
2012-06-18, 01:04:04,VALID,1006.6,VALID,0,VALID,93.8734,VALID,0,VALID,23.9937,VALID,56,VALID,0,
2012-06-18, 01:05:04,VALID,1006.61,VALID,0,VALID,93.9802,VALID,0,VALID,24.0539,VALID,56,VALID,0,
2012-06-18, 01:06:04,VALID,1006.57,VALID,0,VALID,93.9344,VALID,0,VALID,24.0132,VALID,56,VALID,0,
2012-06-18, 01:07:04,VALID,1006.52,VALID,0,VALID,93.7818,VALID,0,VALID,23.9761,VALID,56,VALID,0,
2012-06-18, 01:08:04,VALID,1006.51,VALID,0,VALID,93.6216,VALID,0,VALID,23.8964,VALID,56,VALID,0,
2012-06-18, 01:09:04,VALID,1006.48,VALID,0,VALID,93.6521,VALID,0,VALID,23.8575,VALID,56,VALID,0,
2012-06-18, 01:10:04,VALID,1006.48,VALID,0,VALID,93.7666,VALID,0,VALID,23.8593,VALID,56,VALID,0,
2012-06-18, 01:11:04,VALID,1006.45,VALID,0,VALID,93.8734,VALID,0,VALID,23.8769,VALID,56,VALID,0,
2012-06-18, 01:12:04,VALID,1006.44,VALID,0,VALID,93.9725,VALID,0,VALID,23.8769,VALID,56,VALID,0,
2012-06-18, 01:13:04,VALID,1006.43,VALID,0,VALID,93.8886,VALID,0,VALID,23.838,VALID,56,VALID,0,
2012-06-18, 01:14:04,VALID,1006.42,VALID,0,VALID,93.8429,VALID,0,VALID,23.8185,VALID,56,VALID,0,
2012-06-18, 01:15:04,VALID,1006.39,VALID,0,VALID,93.8505,VALID,0,VALID,23.8009,VALID,56,VALID,0,
2012-06-18, 01:16:04,VALID,1006.37,VALID,0,VALID,93.8581,VALID,0,VALID,23.8009,VALID,56,VALID,0,
2012-06-18, 01:17:04,VALID,1006.36,VALID,0,VALID,94.0946,VALID,0,VALID,23.8185,VALID,56,VALID,0,
2012-06-18, 01:18:04,VALID,1006.37,VALID,0,VALID,94.2701,VALID,0,VALID,23.8982,VALID,56,VALID,0,
2012-06-18, 01:19:04,VALID,1006.36,VALID,0,VALID,94.1251,VALID,0,VALID,23.8362,VALID,53,VALID,0,
2012-06-18, 01:20:04,VALID,1006.35,VALID,0,VALID,94.2319,VALID,0,VALID,23.9177,VALID,21,VALID,0,
2012-06-18, 01:21:04,VALID,1006.33,VALID,0,VALID,94.2396,VALID,0,VALID,23.9371,VALID,19,VALID,0,
2012-06-18, 01:22:04,VALID,1006.31,VALID,0,VALID,94.2243,VALID,0,VALID,23.9159,VALID,18,VALID,0,
2012-06-18, 01:23:04,VALID,1006.29,VALID,0,VALID,94.3464,VALID,0,VALID,23.9742,VALID,16,VALID,0,
2012-06-18, 01:24:04,VALID,1006.27,VALID,0,VALID,94.293,VALID,0,VALID,23.9742,VALID,16,VALID,0,
2012-06-18, 01:25:04,VALID,1006.28,VALID,0,VALID,94.3235,VALID,0,VALID,23.9742,VALID,14,VALID,0,
2012-06-18, 01:26:04,VALID,1006.25,VALID,0,VALID,94.2319,VALID,0,VALID,24.015,VALID,13,VALID,0,
2012-06-18, 01:27:04,VALID,1006.25,VALID,0,VALID,94.2167,VALID,0,VALID,23.9955,VALID,13,VALID,0,
2012-06-18, 01:28:04,VALID,1006.25,VALID,0,VALID,94.0717,VALID,0,VALID,23.9159,VALID,13,VALID,0,
2012-06-18, 01:29:04,VALID,1006.23,VALID,0,VALID,93.9573,VALID,0,VALID,23.8575,VALID,13,VALID,0,
2012-06-18, 01:30:04,VALID,1006.2,VALID,0,VALID,93.9115,VALID,0,VALID,23.8203,VALID,13,VALID,0,
2012-06-18, 01:31:04,VALID,1006.18,VALID,0,VALID,93.9191,VALID,0,VALID,23.7991,VALID,13,VALID,0,
2012-06-18, 01:32:04,VALID,1006.2,VALID,0,VALID,94.0107,VALID,0,VALID,23.8203,VALID,13,VALID,0,
2012-06-18, 01:33:04,VALID,1006.17,VALID,0,VALID,94.0565,VALID,0,VALID,23.8203,VALID,13,VALID,0,
2012-06-18, 01:34:04,VALID,1006.18,VALID,0,VALID,94.1022,VALID,0,VALID,23.7796,VALID,13,VALID,0,
2012-06-18, 01:35:04,VALID,1006.19,VALID,0,VALID,94.0336,VALID,0,VALID,23.7601,VALID,13,VALID,0,
2012-06-18, 01:36:04,VALID,1006.17,VALID,0,VALID,94.0412,VALID,0,VALID,23.7619,VALID,13,VALID,0,
2012-06-18, 01:37:04,VALID,1006.18,VALID,0,VALID,94.0336,VALID,0,VALID,23.7017,VALID,13,VALID,0,
2012-06-18, 01:38:04,VALID,1006.17,VALID,0,VALID,94.0641,VALID,0,VALID,23.7017,VALID,13,VALID,0,
2012-06-18, 01:39:04,VALID,1006.17,VALID,0,VALID,94.0488,VALID,0,VALID,23.6628,VALID,13,VALID,0,
2012-06-18, 01:40:04,VALID,1006.16,VALID,0,VALID,94.1785,VALID,0,VALID,23.7035,VALID,13,VALID,0,
2012-06-18, 01:41:04,VALID,1006.15,VALID,0,VALID,94.2396,VALID,0,VALID,23.7212,VALID,13,VALID,0,
2012-06-18, 01:42:04,VALID,1006.15,VALID,0,VALID,94.293,VALID,0,VALID,23.7425,VALID,13,VALID,0,
2012-06-18, 01:43:04,VALID,1006.14,VALID,0,VALID,94.2548,VALID,0,VALID,23.7443,VALID,13,VALID,0,
2012-06-18, 01:44:04,VALID,1006.13,VALID,0,VALID,94.1633,VALID,0,VALID,23.6823,VALID,13,VALID,0,
2012-06-18, 01:45:04,VALID,1006.14,VALID,0,VALID,94.1328,VALID,0,VALID,23.6646,VALID,13,VALID,0.654297,
2012-06-18, 01:46:04,VALID,1006.1,VALID,0,VALID,94.209,VALID,0,VALID,23.6646,VALID,13,VALID,0.346094,
2012-06-18, 01:47:04,VALID,1006.08,VALID,0,VALID,94.2167,VALID,0,VALID,23.6434,VALID,13,VALID,0.530859,
2012-06-18, 01:48:04,VALID,1006.03,VALID,0,VALID,94.2396,VALID,0,VALID,23.6434,VALID,13,VALID,0.407031,
2012-06-18, 01:49:04,VALID,1006.06,VALID,0,VALID,94.2548,VALID,0,VALID,23.6646,VALID,13,VALID,0.308594,
2012-06-18, 01:50:04,VALID,1006.06,VALID,0,VALID,94.2701,VALID,0,VALID,23.6646,VALID,13,VALID,0.281641,
2012-06-18, 01:51:04,VALID,1006.04,VALID,0,VALID,94.2853,VALID,0,VALID,23.6434,VALID,13,VALID,0.355078,
2012-06-18, 01:52:04,VALID,1006,VALID,0,VALID,94.3845,VALID,0,VALID,23.7017,VALID,13,VALID,0.510938,
2012-06-18, 01:53:04,VALID,1006.01,VALID,0,VALID,94.4303,VALID,0,VALID,23.7619,VALID,13,VALID,0.436719,
2012-06-18, 01:54:04,VALID,1005.96,VALID,0,VALID,94.3769,VALID,0,VALID,23.723,VALID,13,VALID,0.536719,
2012-06-18, 01:55:04,VALID,1005.97,VALID,0,VALID,94.2396,VALID,0,VALID,23.7248,VALID,13,VALID,0.493359,
2012-06-18, 01:56:04,VALID,1005.95,VALID,0,VALID,94.1556,VALID,0,VALID,23.6841,VALID,13,VALID,0.15625,
2012-06-18, 01:57:04,VALID,1005.93,VALID,0,VALID,94.1251,VALID,0,VALID,23.6841,VALID,13,VALID,0.0328125,
2012-06-18, 01:58:04,VALID,1005.92,VALID,0,VALID,94.1175,VALID,0,VALID,23.6646,VALID,13,VALID,0,
2012-06-18, 01:59:04,VALID,1005.88,VALID,0,VALID,94.148,VALID,0,VALID,23.6646,VALID,13,VALID,0.236328,
2012-06-18, 02:00:04,VALID,1005.85,VALID,0,VALID,94.2014,VALID,0,VALID,23.7035,VALID,13,VALID,0.499609,
2012-06-18, 02:01:04,VALID,1005.83,VALID,0,VALID,94.2548,VALID,0,VALID,23.723,VALID,16,VALID,0.433984,
2012-06-18, 02:02:04,VALID,1005.81,VALID,0,VALID,94.3235,VALID,0,VALID,23.7425,VALID,16,VALID,0.458594,
2012-06-18, 02:03:04,VALID,1005.78,VALID,0,VALID,94.3616,VALID,0,VALID,23.8009,VALID,48,VALID,0.203125,
2012-06-18, 02:04:04,VALID,1005.77,VALID,0,VALID,94.3845,VALID,0,VALID,23.8203,VALID,50,VALID,0.33125,
2012-06-18, 02:05:04,VALID,1005.77,VALID,0,VALID,94.415,VALID,0,VALID,23.8982,VALID,67,VALID,0.903516,
2012-06-18, 02:06:04,VALID,1005.77,VALID,0,VALID,94.415,VALID,0,VALID,23.9371,VALID,65,VALID,0.396094,
2012-06-18, 02:07:04,VALID,1005.77,VALID,0,VALID,94.2167,VALID,0,VALID,23.9177,VALID,65,VALID,0.507422,
2012-06-18, 02:08:04,VALID,1005.77,VALID,0,VALID,94.0488,VALID,0,VALID,23.8593,VALID,65,VALID,0.358594,
2012-06-18, 02:09:04,VALID,1005.74,VALID,0,VALID,94.0031,VALID,0,VALID,23.8593,VALID,65,VALID,0.289453,
2012-06-18, 02:10:04,VALID,1005.74,VALID,0,VALID,93.9802,VALID,0,VALID,23.8575,VALID,65,VALID,0.439453,
2012-06-18, 02:11:04,VALID,1005.7,VALID,0,VALID,93.9954,VALID,0,VALID,23.8575,VALID,65,VALID,0.177344,
2012-06-18, 02:12:04,VALID,1005.71,VALID,0,VALID,93.9268,VALID,0,VALID,23.8787,VALID,64,VALID,0.157031,
2012-06-18, 02:13:04,VALID,1005.67,VALID,0,VALID,93.881,VALID,0,VALID,23.8787,VALID,62,VALID,0.284766,
2012-06-18, 02:14:04,VALID,1005.64,VALID,0,VALID,93.9649,VALID,0,VALID,23.9371,VALID,62,VALID,0.292578,
2012-06-18, 02:15:04,VALID,1005.63,VALID,0,VALID,94.0336,VALID,0,VALID,23.9548,VALID,62,VALID,0.291016,
2012-06-18, 02:16:04,VALID,1005.61,VALID,0,VALID,94.0641,VALID,0,VALID,24.0734,VALID,62,VALID,0.433203,
2012-06-18, 02:17:04,VALID,1005.6,VALID,0,VALID,94.0107,VALID,0,VALID,24.0716,VALID,62,VALID,0.602734,
2012-06-18, 02:18:04,VALID,1005.6,VALID,0,VALID,93.9344,VALID,0,VALID,24.1318,VALID,62,VALID,0.456641,
2012-06-18, 02:19:04,VALID,1005.59,VALID,0,VALID,93.82,VALID,0,VALID,24.1707,VALID,57,VALID,0.498047,
2012-06-18, 02:20:04,VALID,1005.61,VALID,0,VALID,93.6445,VALID,0,VALID,24.2078,VALID,57,VALID,0.232812,
2012-06-18, 02:21:04,VALID,1005.58,VALID,0,VALID,93.3241,VALID,0,VALID,24.1689,VALID,57,VALID,0.380859,
2012-06-18, 02:22:04,VALID,1005.59,VALID,0,VALID,93.2554,VALID,0,VALID,24.1902,VALID,57,VALID,0.308203,
2012-06-18, 02:23:04,VALID,1005.58,VALID,0,VALID,93.2554,VALID,0,VALID,24.2291,VALID,57,VALID,0.1875,
2012-06-18, 02:24:04,VALID,1005.57,VALID,0,VALID,93.1639,VALID,0.0815089,VALID,24.2255,VALID,57,VALID,0.311719,
2012-06-18, 02:25:04,VALID,1005.56,VALID,0,VALID,93.0647,VALID,0.0815089,VALID,24.2662,VALID,57,VALID,0.270703,
2012-06-18, 02:26:04,VALID,1005.52,VALID,0,VALID,92.8892,VALID,0.0815089,VALID,24.2662,VALID,57,VALID,0.124219,
2012-06-18, 02:27:04,VALID,1005.52,VALID,0,VALID,92.7824,VALID,0.0815089,VALID,24.2662,VALID,57,VALID,0.158984,
2012-06-18, 02:28:04,VALID,1005.45,VALID,0,VALID,92.813,VALID,0,VALID,24.2857,VALID,57,VALID,0.0472656,
2012-06-18, 02:29:04,VALID,1005.44,VALID,0,VALID,92.6756,VALID,0.0815089,VALID,24.3033,VALID,57,VALID,0.359375,
2012-06-18, 02:30:04,VALID,1005.44,VALID,0,VALID,92.5688,VALID,0.0815089,VALID,24.3422,VALID,57,VALID,0,
2012-06-18, 02:31:04,VALID,1005.42,VALID,0,VALID,92.5612,VALID,0,VALID,24.4025,VALID,57,VALID,0.588672,
2012-06-18, 02:32:04,VALID,1005.39,VALID,0,VALID,92.3934,VALID,0,VALID,24.4804,VALID,57,VALID,0.350391,
2012-06-18, 02:33:04,VALID,1005.4,VALID,0,VALID,91.9128,VALID,0.0815089,VALID,24.498,VALID,48,VALID,0.60625,
2012-06-18, 02:34:04,VALID,1005.4,VALID,0,VALID,91.5313,VALID,0.0815089,VALID,24.5212,VALID,46,VALID,0.257813,
2012-06-18, 02:35:04,VALID,1005.42,VALID,0,VALID,91.5008,VALID,0,VALID,24.4785,VALID,41,VALID,0.404687,
2012-06-18, 02:36:04,VALID,1005.41,VALID,0,VALID,91.249,VALID,0,VALID,24.4998,VALID,41,VALID,0.425781,
2012-06-18, 02:37:04,VALID,1005.46,VALID,0,VALID,91.0659,VALID,0,VALID,24.459,VALID,41,VALID,0.601953,
2012-06-18, 02:38:04,VALID,1005.45,VALID,0,VALID,91.1575,VALID,0.0815089,VALID,24.4609,VALID,29,VALID,0.490625,
2012-06-18, 02:39:04,VALID,1005.46,VALID,0,VALID,91.333,VALID,0,VALID,24.4025,VALID,29,VALID,0.463672,
2012-06-18, 02:40:04,VALID,1005.43,VALID,0,VALID,91.7297,VALID,0,VALID,24.4804,VALID,25,VALID,0.697656,
2012-06-18, 02:41:04,VALID,1005.42,VALID,0,VALID,91.1499,VALID,0,VALID,24.4804,VALID,25,VALID,0.176953,
2012-06-18, 02:42:04,VALID,1005.43,VALID,0,VALID,91.127,VALID,0,VALID,24.4609,VALID,25,VALID,0,
2012-06-18, 02:43:04,VALID,1005.43,VALID,0,VALID,91.2796,VALID,0,VALID,24.4396,VALID,25,VALID,0,
2012-06-18, 02:44:04,VALID,1005.41,VALID,0,VALID,91.3635,VALID,0,VALID,24.4998,VALID,25,VALID,0.371094,
2012-06-18, 02:45:04,VALID,1005.39,VALID,0,VALID,91.2872,VALID,0,VALID,24.498,VALID,25,VALID,0,
2012-06-18, 02:46:04,VALID,1005.38,VALID,0,VALID,91.2567,VALID,0,VALID,24.5564,VALID,92,VALID,0,
2012-06-18, 02:47:04,VALID,1005.36,VALID,0,VALID,91.1728,VALID,0.0815089,VALID,24.5758,VALID,92,VALID,0,
2012-06-18, 02:48:04,VALID,1005.35,VALID,0,VALID,91.3864,VALID,0,VALID,24.6556,VALID,90,VALID,0.551562,
2012-06-18, 02:49:04,VALID,1005.35,VALID,0,VALID,90.9591,VALID,0,VALID,24.6732,VALID,90,VALID,0.289063,
2012-06-18, 02:50:04,VALID,1005.33,VALID,0,VALID,90.9515,VALID,0,VALID,24.7743,VALID,90,VALID,0,
2012-06-18, 02:51:04,VALID,1005.34,VALID,0,VALID,90.5396,VALID,0,VALID,24.7724,VALID,91,VALID,0.371484,
2012-06-18, 02:52:04,VALID,1005.33,VALID,0,VALID,90.4556,VALID,0,VALID,24.8289,VALID,77,VALID,0.772266,
2012-06-18, 02:53:04,VALID,1005.3,VALID,0,VALID,90.2497,VALID,0,VALID,24.8873,VALID,73,VALID,0.549609,
2012-06-18, 02:54:04,VALID,1005.32,VALID,0,VALID,89.7233,VALID,0,VALID,24.9282,VALID,73,VALID,0.0570313,
2012-06-18, 02:55:04,VALID,1005.3,VALID,0,VALID,89.3876,VALID,0,VALID,24.9087,VALID,73,VALID,0.311328,
2012-06-18, 02:56:04,VALID,1005.3,VALID,0,VALID,89.296,VALID,0,VALID,24.8697,VALID,73,VALID,0.498828,
2012-06-18, 02:57:04,VALID,1005.27,VALID,0,VALID,89.5249,VALID,0,VALID,24.8308,VALID,73,VALID,0.430469,
2012-06-18, 02:58:04,VALID,1005.27,VALID,0,VALID,89.9216,VALID,0,VALID,24.8113,VALID,24,VALID,0.353516,
2012-06-18, 02:59:04,VALID,1005.27,VALID,0,VALID,89.7614,VALID,0,VALID,24.7919,VALID,42,VALID,0,
2012-06-18, 03:00:04,VALID,1005.33,VALID,0,VALID,89.9826,VALID,0,VALID,24.751,VALID,42,VALID,0,
2012-06-18, 03:01:04,VALID,1005.32,VALID,0,VALID,90.2268,VALID,0,VALID,24.7724,VALID,42,VALID,0,
2012-06-18, 03:02:04,VALID,1005.35,VALID,0,VALID,90.242,VALID,0,VALID,24.7724,VALID,42,VALID,0,
2012-06-18, 03:03:04,VALID,1005.33,VALID,0,VALID,90.3717,VALID,0,VALID,24.7919,VALID,42,VALID,0,
2012-06-18, 03:04:04,VALID,1005.35,VALID,0,VALID,90.7074,VALID,0,VALID,24.8113,VALID,38,VALID,0,
2012-06-18, 03:05:04,VALID,1005.38,VALID,0,VALID,90.5396,VALID,0,VALID,24.8697,VALID,28,VALID,0.687109,
2012-06-18, 03:06:04,VALID,1005.37,VALID,0,VALID,90.654,VALID,0,VALID,24.93,VALID,360,VALID,0.997656,
2012-06-18, 03:07:04,VALID,1005.33,VALID,0,VALID,90.2344,VALID,0,VALID,25.006,VALID,18,VALID,0.526563,
2012-06-18, 03:08:04,VALID,1005.35,VALID,0,VALID,89.9064,VALID,0,VALID,25.0625,VALID,57,VALID,0.466406,
2012-06-18, 03:09:04,VALID,1005.35,VALID,0,VALID,89.4868,VALID,0,VALID,25.1442,VALID,61,VALID,0.621875,
2012-06-18, 03:10:04,VALID,1005.35,VALID,0,VALID,89.2274,VALID,0.0815089,VALID,25.1423,VALID,61,VALID,0,
2012-06-18, 03:11:04,VALID,1005.32,VALID,0,VALID,89.1053,VALID,0,VALID,25.1423,VALID,61,VALID,0,
2012-06-18, 03:12:04,VALID,1005.31,VALID,0,VALID,89.3113,VALID,0,VALID,25.1618,VALID,61,VALID,0.311328,
2012-06-18, 03:13:04,VALID,1005.29,VALID,0,VALID,89.2426,VALID,0,VALID,25.2007,VALID,53,VALID,0.211328,
2012-06-18, 03:14:04,VALID,1005.27,VALID,0,VALID,89.2503,VALID,0,VALID,25.2592,VALID,65,VALID,0.415234,
2012-06-18, 03:15:04,VALID,1005.25,VALID,0,VALID,88.8612,VALID,0,VALID,25.2981,VALID,65,VALID,0.236328,
2012-06-18, 03:16:04,VALID,1005.25,VALID,0,VALID,88.6018,VALID,0,VALID,25.3195,VALID,65,VALID,0.116016,
2012-06-18, 03:17:04,VALID,1005.26,VALID,0,VALID,88.6323,VALID,0.0815089,VALID,25.3176,VALID,65,VALID,0.678906,
2012-06-18, 03:18:04,VALID,1005.23,VALID,0,VALID,88.6018,VALID,0.0815089,VALID,25.3157,VALID,66,VALID,0.394141,
2012-06-18, 03:19:04,VALID,1005.2,VALID,0,VALID,88.8002,VALID,0,VALID,25.3565,VALID,75,VALID,0.997266,
2012-06-18, 03:20:04,VALID,1005.17,VALID,0,VALID,88.3958,VALID,0,VALID,25.4149,VALID,68,VALID,0.584375,
2012-06-18, 03:21:04,VALID,1005.17,VALID,0,VALID,88.2127,VALID,0.0815089,VALID,25.4539,VALID,85,VALID,0.514063,
2012-06-18, 03:22:04,VALID,1005.15,VALID,0,VALID,88.289,VALID,0,VALID,25.4928,VALID,86,VALID,0.789844,
2012-06-18, 03:23:04,VALID,1005.18,VALID,0,VALID,87.9381,VALID,0,VALID,25.5513,VALID,89,VALID,0.634375,
2012-06-18, 03:24:04,VALID,1005.16,VALID,0,VALID,87.7703,VALID,0,VALID,25.5707,VALID,100,VALID,0.485547,
2012-06-18, 03:25:04,VALID,1005.17,VALID,0,VALID,87.7169,VALID,0,VALID,25.5707,VALID,69,VALID,1.15273,
2012-06-18, 03:26:05,VALID,1005.17,VALID,0,VALID,87.5414,VALID,0,VALID,25.5688,VALID,103,VALID,0.586328,
2012-06-18, 03:27:05,VALID,1005.17,VALID,0,VALID,87.5261,VALID,0.0815089,VALID,25.5902,VALID,103,VALID,0.273047,
2012-06-18, 03:28:05,VALID,1005.13,VALID,0,VALID,87.5948,VALID,0,VALID,25.5902,VALID,89,VALID,0.773828,
2012-06-18, 03:29:05,VALID,1005.14,VALID,0,VALID,87.343,VALID,0,VALID,25.6097,VALID,89,VALID,0.335938,
2012-06-18, 03:30:05,VALID,1005.12,VALID,0,VALID,87.221,VALID,0,VALID,25.5707,VALID,89,VALID,0,
2012-06-18, 03:31:05,VALID,1005.13,VALID,0,VALID,87.2668,VALID,0,VALID,25.4928,VALID,89,VALID,0.359375,
2012-06-18, 03:32:05,VALID,1005.15,VALID,0,VALID,87.7016,VALID,0,VALID,25.4325,VALID,89,VALID,0.130859,
2012-06-18, 03:33:05,VALID,1005.12,VALID,0,VALID,87.8237,VALID,0.0815089,VALID,25.3741,VALID,89,VALID,0,
2012-06-18, 03:34:05,VALID,1005.12,VALID,0,VALID,88.0831,VALID,0.0815089,VALID,25.3565,VALID,89,VALID,0,
2012-06-18, 03:35:05,VALID,1005.1,VALID,0,VALID,88.2967,VALID,0.0815089,VALID,25.3176,VALID,89,VALID,0,
2012-06-18, 03:36:05,VALID,1005.1,VALID,0,VALID,88.3119,VALID,0.0815089,VALID,25.2786,VALID,89,VALID,0,
2012-06-18, 03:37:05,VALID,1005.13,VALID,0,VALID,88.5408,VALID,0,VALID,25.2202,VALID,89,VALID,0,
2012-06-18, 03:38:05,VALID,1005.13,VALID,0,VALID,88.8002,VALID,0,VALID,25.1813,VALID,89,VALID,0,
2012-06-18, 03:39:05,VALID,1005.17,VALID,0,VALID,88.8078,VALID,0,VALID,25.1053,VALID,90,VALID,0,
2012-06-18, 03:40:05,VALID,1005.17,VALID,0,VALID,88.907,VALID,0,VALID,25.0469,VALID,90,VALID,0,
2012-06-18, 03:41:05,VALID,1005.18,VALID,0,VALID,89.2198,VALID,0,VALID,24.9885,VALID,90,VALID,0,
2012-06-18, 03:42:05,VALID,1005.17,VALID,0,VALID,89.4181,VALID,0,VALID,24.93,VALID,90,VALID,0,
2012-06-18, 03:43:05,VALID,1005.14,VALID,0,VALID,89.8377,VALID,0,VALID,24.8911,VALID,90,VALID,0,
2012-06-18, 03:44:05,VALID,1005.17,VALID,0,VALID,90.036,VALID,0,VALID,24.8716,VALID,90,VALID,0,
2012-06-18, 03:45:05,VALID,1005.18,VALID,0,VALID,90.036,VALID,0,VALID,24.7743,VALID,90,VALID,0,
2012-06-18, 03:46:05,VALID,1005.19,VALID,0,VALID,90.2878,VALID,0,VALID,24.714,VALID,90,VALID,0,
2012-06-18, 03:47:05,VALID,1005.21,VALID,0,VALID,90.4404,VALID,0,VALID,24.7159,VALID,90,VALID,0,
2012-06-18, 03:48:05,VALID,1005.18,VALID,0,VALID,90.6311,VALID,0,VALID,24.6361,VALID,90,VALID,0,
2012-06-18, 03:49:05,VALID,1005.16,VALID,0,VALID,90.8905,VALID,0,VALID,24.6166,VALID,90,VALID,0,